map of DJE home
Great Circle Mapper logo
DJE - Airport
Location
City:  Djerba, Tunisia
Near (Alt.):Jerba
Name:Zarzis International Airport
ICAO:DTTJ
IATA:DJE

Details
Type:Airport (Aerodrome, Airfield)
Use:Public/Civil, International (customs port of entry)
Latitude:3352'32"N (33.875556)
Longitude:1046'38"E (10.777222)
Elevation:19 ft (6 m)
Variation:2.21E (WMM2015 magnetic declination)
0.09 annual change
Runways:1
Longest:10171 × 148 ft (3100 × 45 m), paved

Time
Time Zone:UTC+1 (DST+2)

Weather
METAR:DTTJ 272000Z 13010KT 8000 NSC 27/22 Q1019 NOSIG
TAF:DTTJ 271722Z 2718/2818 10012KT 9999 FEW020
TEMPO 2722/2812 16008KT FEW026

Related Locations
Nearby:
Farthest:GIS: 11655 mi / 18756 km
Gisborne, NZ

Find:

   beyond  
but within

Other Information
Maps:
NOTAMs:
Links:
Sources:

  
flag of Tunisia   

Sectional Chart

Flight Planning
at skyvector.com

Satellite Image

Google Maps Satellite view

 

Copyright © 2004-2016 Karl L. Swartz. All rights reserved.
The Great Circle Mapper name and logo are trademarks of the Great Circle Mapper.
All other trademarks mentioned herein belong to their respective owners.
Please see credits for attibutions and further copyright information.

  Follow gcmap on Facebook Follow gcmap on Twitter Follow gcmap on Google+ GCmap on LinkedIn

hCard Microformat

Geo Microformat